TimeCDT,TemperatureF,Dew PointF,Humidity,Sea Level PressureIn,VisibilityMPH,Wind Direction,Wind SpeedMPH,Gust SpeedMPH,PrecipitationIn,Events,Conditions,WindDirDegrees,DateUTC
12:12 AM,73.0,72.1,97,29.87,10.0,ESE,11.5,-,N/A,,Clear,110,2014-08-24 05:12:00
12:33 AM,72.9,72.0,97,29.87,10.0,ESE,10.4,-,N/A,,Scattered Clouds,110,2014-08-24 05:33:00
12:53 AM,72.9,72.0,97,29.87,10.0,ESE,11.5,-,N/A,,Mostly Cloudy,110,2014-08-24 05:53:00
1:12 AM,73.0,72.0,96,29.86,10.0,ESE,11.5,-,N/A,,Overcast,110,2014-08-24 06:12:00
1:32 AM,72.7,71.6,96,29.86,10.0,ESE,12.7,-,N/A,,Overcast,110,2014-08-24 06:32:00
1:53 AM,72.7,71.6,96,29.85,10.0,ESE,11.5,-,N/A,,Overcast,120,2014-08-24 06:53:00
2:13 AM,72.7,71.6,96,29.84,10.0,ESE,10.4,16.1,N/A,,Overcast,120,2014-08-24 07:13:00
2:32 AM,72.7,71.6,96,29.82,10.0,ESE,13.8,18.4,N/A,,Overcast,120,2014-08-24 07:32:00
2:53 AM,72.9,71.8,96,29.82,7.0,SE,13.8,18.4,N/A,Rain-Thunderstorm,Light Thunderstorms and Rain,130,2014-08-24 07:53:00
3:12 AM,72.5,71.6,97,29.81,10.0,ESE,15.0,20.7,N/A,,Mostly Cloudy,120,2014-08-24 08:12:00
3:33 AM,72.5,71.8,98,29.79,7.0,ESE,12.7,19.6,0.02,Rain-Thunderstorm,Light Thunderstorms and Rain,120,2014-08-24 08:33:00
3:52 AM,72.7,72.0,98,29.79,10.0,ESE,16.1,19.6,0.02,,Overcast,120,2014-08-24 08:52:00
4:13 AM,72.5,71.8,98,29.81,10.0,South,5.8,11.5,N/A,,Overcast,170,2014-08-24 09:13:00
4:33 AM,73.0,72.0,96,29.84,10.0,SSW,5.8,-,N/A,,Overcast,200,2014-08-24 09:33:00
4:52 AM,73.4,72.1,96,29.84,7.0,SSE,6.9,-,N/A,Rain,Rain,150,2014-08-24 09:52:00
5:13 AM,73.6,72.5,96,29.83,10.0,SSE,4.6,-,N/A,Rain,Light Rain,150,2014-08-24 10:13:00
5:33 AM,73.6,72.5,96,29.83,10.0,SE,3.5,-,N/A,,Overcast,140,2014-08-24 10:33:00
5:52 AM,73.6,72.5,96,29.84,10.0,SE,6.9,-,N/A,,Overcast,140,2014-08-24 10:52:00
6:12 AM,73.4,72.5,97,29.84,10.0,SE,6.9,-,N/A,,Overcast,130,2014-08-24 11:12:00
6:33 AM,72.7,72.0,98,29.81,7.0,ESE,12.7,-,N/A,,Mostly Cloudy,110,2014-08-24 11:33:00
6:53 AM,72.7,72.0,98,29.78,5.0,ESE,11.5,-,N/A,,Clear,110,2014-08-24 11:53:00
7:12 AM,72.9,72.1,98,29.78,7.0,ESE,13.8,-,N/A,,Clear,110,2014-08-24 12:12:00
7:33 AM,73.0,72.1,97,29.79,7.0,ESE,15.0,20.7,N/A,,Scattered Clouds,120,2014-08-24 12:33:00
7:53 AM,73.0,72.0,96,29.79,7.0,ESE,13.8,20.7,N/A,,Mostly Cloudy,120,2014-08-24 12:53:00
8:12 AM,73.0,71.8,96,29.80,10.0,SE,11.5,20.7,N/A,,Mostly Cloudy,130,2014-08-24 13:12:00
8:32 AM,73.4,71.8,95,29.81,10.0,SE,11.5,-,N/A,,Scattered Clouds,130,2014-08-24 13:32:00
8:52 AM,73.6,72.0,95,29.81,10.0,SE,12.7,17.3,N/A,,Clear,130,2014-08-24 13:52:00
9:13 AM,73.8,71.8,93,29.80,10.0,SE,12.7,-,N/A,,Clear,130,2014-08-24 14:13:00
9:33 AM,76.5,72.7,88,29.81,10.0,SE,12.7,17.3,N/A,,Scattered Clouds,130,2014-08-24 14:33:00
9:53 AM,75.7,72.3,89,29.82,10.0,SSE,8.1,-,N/A,,Scattered Clouds,150,2014-08-24 14:53:00
10:12 AM,77.7,73.0,85,29.82,10.0,SE,8.1,-,N/A,,Mostly Cloudy,140,2014-08-24 15:12:00
10:33 AM,78.3,72.7,83,29.83,10.0,SE,9.2,-,N/A,,Scattered Clouds,140,2014-08-24 15:33:00
10:53 AM,80.4,73.6,80,29.82,10.0,SSE,8.1,-,N/A,,Scattered Clouds,150,2014-08-24 15:53:00
11:13 AM,80.8,73.4,78,29.83,10.0,SSE,6.9,-,N/A,,Scattered Clouds,160,2014-08-24 16:13:00
11:32 AM,82.0,74.1,77,29.83,10.0,SSE,8.1,-,N/A,,Clear,150,2014-08-24 16:32:00
11:53 AM,81.5,73.8,77,29.83,10.0,South,8.1,-,N/A,,Clear,170,2014-08-24 16:53:00
12:13 PM,82.4,73.6,75,29.82,10.0,SSE,6.9,-,N/A,,Clear,150,2014-08-24 17:13:00
12:33 PM,84.2,74.8,73,29.82,10.0,SE,9.2,-,N/A,,Scattered Clouds,140,2014-08-24 17:33:00
12:52 PM,84.2,73.9,71,29.82,10.0,South,8.1,-,N/A,,Scattered Clouds,170,2014-08-24 17:52:00
1:13 PM,83.7,74.5,74,29.82,10.0,SE,8.1,16.1,N/A,,Scattered Clouds,140,2014-08-24 18:13:00
1:33 PM,84.0,73.8,71,29.82,10.0,South,9.2,-,N/A,,Scattered Clouds,180,2014-08-24 18:33:00
1:52 PM,86.2,75.2,70,29.82,10.0,South,9.2,-,N/A,,Scattered Clouds,170,2014-08-24 18:52:00
2:12 PM,85.5,74.3,69,29.82,10.0,South,11.5,-,N/A,Thunderstorm,Scattered Clouds,170,2014-08-24 19:12:00
2:33 PM,84.7,74.1,70,29.82,10.0,South,4.6,-,N/A,Thunderstorm,Mostly Cloudy,180,2014-08-24 19:33:00
2:52 PM,85.1,74.8,71,29.82,10.0,SSE,6.9,-,N/A,,Scattered Clouds,160,2014-08-24 19:52:00
3:13 PM,86.5,75.4,69,29.80,10.0,SSE,5.8,-,N/A,Thunderstorm,Scattered Clouds,160,2014-08-24 20:13:00
3:32 PM,85.8,74.8,70,29.80,10.0,SSE,6.9,-,N/A,,Scattered Clouds,150,2014-08-24 20:32:00
3:53 PM,85.3,74.3,70,29.81,10.0,South,8.1,-,N/A,,Scattered Clouds,170,2014-08-24 20:53:00
4:12 PM,84.9,74.8,72,29.81,10.0,SSW,5.8,-,N/A,,Clear,200,2014-08-24 21:12:00
4:33 PM,87.6,74.5,65,29.81,10.0,SSW,5.8,-,N/A,,Clear,210,2014-08-24 21:33:00
4:52 PM,85.5,74.3,69,29.80,10.0,SW,6.9,-,N/A,,Mostly Cloudy,220,2014-08-24 21:52:00
5:13 PM,87.4,73.9,64,29.81,10.0,WSW,11.5,-,N/A,,Overcast,250,2014-08-24 22:13:00
5:32 PM,86.9,73.0,63,29.81,10.0,SW,10.4,-,N/A,,Scattered Clouds,230,2014-08-24 22:32:00
5:52 PM,85.5,73.8,68,29.81,10.0,SSW,4.6,-,N/A,,Scattered Clouds,200,2014-08-24 22:52:00
6:12 PM,83.8,73.9,72,29.81,10.0,SW,8.1,-,N/A,,Clear,220,2014-08-24 23:12:00
6:33 PM,83.3,74.3,74,29.82,10.0,SW,8.1,-,N/A,,Clear,220,2014-08-24 23:33:00
6:52 PM,83.5,73.6,72,29.82,10.0,SW,8.1,-,N/A,,Clear,220,2014-08-24 23:52:00
7:13 PM,82.8,72.1,70,29.83,10.0,WSW,6.9,-,N/A,,Clear,240,2014-08-25 00:13:00
7:33 PM,81.3,70.2,69,29.84,10.0,SW,5.8,-,N/A,,Clear,220,2014-08-25 00:33:00
7:53 PM,78.6,70.7,77,29.84,10.0,Calm,Calm,-,N/A,,Clear,0,2014-08-25 00:53:00
8:12 PM,77.2,70.3,79,29.84,10.0,SSW,3.5,-,N/A,,Clear,210,2014-08-25 01:12:00
8:32 PM,76.6,70.3,81,29.85,10.0,SW,4.6,-,N/A,,Clear,230,2014-08-25 01:32:00
8:53 PM,76.5,69.8,80,29.86,10.0,WSW,5.8,-,N/A,,Clear,250,2014-08-25 01:53:00
9:12 PM,74.7,68.7,82,29.87,10.0,West,9.2,-,N/A,,Clear,270,2014-08-25 02:12:00
9:32 PM,73.4,67.5,82,29.88,10.0,West,9.2,-,N/A,,Clear,270,2014-08-25 02:32:00
9:52 PM,72.5,65.8,80,29.89,10.0,West,9.2,-,N/A,,Scattered Clouds,280,2014-08-25 02:52:00
10:12 PM,72.5,64.2,75,29.89,10.0,WNW,6.9,-,N/A,,Clear,290,2014-08-25 03:12:00
10:32 PM,70.9,64.0,79,29.89,10.0,WNW,4.6,-,N/A,,Clear,290,2014-08-25 03:32:00
10:53 PM,69.1,63.9,83,29.87,10.0,Calm,Calm,-,N/A,,Clear,0,2014-08-25 03:53:00
11:13 PM,67.5,64.2,89,29.87,10.0,Calm,Calm,-,N/A,,Clear,0,2014-08-25 04:13:00
11:32 PM,65.5,63.0,92,29.86,10.0,Calm,Calm,-,N/A,,Clear,0,2014-08-25 04:32:00
11:53 PM,65.3,63.0,92,29.87,10.0,Calm,Calm,-,N/A,,Clear,0,2014-08-25 04:53:00